Location: Allos
(44.2333°N, 6.6333°E)
Time: 05:20:10
(UTC+00:00)

USA 267 - Pass Details

Date: 01 December 2020
Orbit: 1100 x 1107 km, 123.0° (Epoch: 18 January)

Event Time Altitude Azimuth Distance (km) Brightness Sun altitude
Exits shadow 17:34:03 25° 69° (ENE) 2,064 4.1 -17.1°
Maximum altitude 17:37:10 39° 20° (NNE) 1,596 3.8 -17.6°
Drops below altitude 10° 17:43:07 10° 315° (NW) 2,968 5.9 -18.6°
Sets 17:45:46 0° 308° (NW) 3,929 6.7 -19.1°
